When you browse on this site, cookies collect data to enhance your experience and personalize the content and advertising you see.
Visit our Privacy Policy to learn more. By continuing to use the site, you agree to this use of cookies and data.
EN

Hourly Weather Kasama

Today, 6 August, Thursday

Time Temperature Precipitation Wind Pressure Humidity
00:00 +22°C° 0 mm 1 mps 723 mmHg 96%
01:00 +22°C° 0 mm 1 mps 722 mmHg 95%
02:00 +22°C° 0 mm 1 mps 722 mmHg 95%
03:00 +22°C° 0 mm 1 mps 722 mmHg 94%
04:00 +22°C° 0 mm 1 mps 722 mmHg 93%
05:00 +22°C° 0 mm 1 mps 723 mmHg 92%
06:00 +22°C° 0 mm 1 mps 723 mmHg 92%
07:00 +23°C° 0 mm 1 mps 723 mmHg 91%
08:00 +23°C° 0 mm 1 mps 724 mmHg 90%
09:00 +25°C° 0 mm 1 mps 724 mmHg 82%
10:00 +28°C° 0 mm 1 mps 724 mmHg 75%
11:00 +30°C° 0 mm 2 mps 724 mmHg 67%
12:00 +30°C° 0.7 mm 1 mps 724 mmHg 68%
13:00 +30°C° 0.7 mm 1 mps 723 mmHg 68%
14:00 +31°C° 0.7 mm 1 mps 722 mmHg 69%
15:00 +30°C° 0.9 mm 1 mps 722 mmHg 72%
16:00 +28°C° 0.9 mm 0 mps 722 mmHg 75%
17:00 +27°C° 0.9 mm 0 mps 721 mmHg 79%
18:00 +26°C° 2.1 mm 0 mps 722 mmHg 82%
19:00 +25°C° 2.1 mm 0 mps 722 mmHg 85%
20:00 +23°C° 2.1 mm 0 mps 723 mmHg 88%
21:00 +25°C° 0.1 mm 1 mps 723 mmHg 89%
22:00 +25°C° 0.1 mm 1 mps 724 mmHg 89%
23:00 +25°C° 0.1 mm 1 mps 724 mmHg 90%

Tomorrow, 7 August, Friday

Time Temperature Precipitation Wind Pressure Humidity
00:00 +25°C° 0.2 mm 1 mps 724 mmHg 91%
01:00 +24°C° 0.2 mm 1 mps 723 mmHg 92%
02:00 +24°C° 0.2 mm 1 mps 723 mmHg 93%
03:00 +24°C° 0.2 mm 1 mps 723 mmHg 93%
04:00 +24°C° 0.2 mm 2 mps 723 mmHg 92%
05:00 +23°C° 0.2 mm 2 mps 723 mmHg 91%
06:00 +24°C° 0 mm 1 mps 724 mmHg 89%
07:00 +24°C° 0 mm 1 mps 724 mmHg 88%
08:00 +25°C° 0 mm 1 mps 724 mmHg 86%
09:00 +26°C° 0 mm 1 mps 724 mmHg 83%
10:00 +27°C° 0 mm 1 mps 724 mmHg 80%
11:00 +28°C° 0 mm 1 mps 725 mmHg 76%
12:00 +28°C° 0 mm 1 mps 724 mmHg 76%
13:00 +29°C° 0 mm 1 mps 723 mmHg 75%
14:00 +29°C° 0 mm 1 mps 722 mmHg 74%
15:00 +29°C° 0.9 mm 1 mps 722 mmHg 77%
16:00 +29°C° 0.9 mm 1 mps 721 mmHg 80%
17:00 +27°C° 0.9 mm 0 mps 721 mmHg 83%
18:00 +28°C° 0.8 mm 1 mps 722 mmHg 85%
19:00 +27°C° 0.8 mm 1 mps 722 mmHg 87%
20:00 +26°C° 0.8 mm 1 mps 723 mmHg 89%
21:00 +26°C° 0.7 mm 1 mps 723 mmHg 90%
22:00 +25°C° 0.7 mm 1 mps 723 mmHg 91%
23:00 +25°C° 0.7 mm 1 mps 723 mmHg 92%

Day after tomorrow, 8 August, Saturday

Time Temperature Precipitation Wind Pressure Humidity
00:00 +25°C° 1.3 mm 1 mps 722 mmHg 93%
01:00 +24°C° 1.3 mm 1 mps 722 mmHg 94%
02:00 +24°C° 1.3 mm 2 mps 721 mmHg 94%
03:00 +24°C° 0.1 mm 2 mps 721 mmHg 94%
04:00 +24°C° 0.1 mm 1 mps 721 mmHg 94%
05:00 +24°C° 0.1 mm 1 mps 721 mmHg 94%
06:00 +25°C° 0.3 mm 1 mps 722 mmHg 93%
07:00 +25°C° 0.3 mm 1 mps 722 mmHg 92%
08:00 +26°C° 0.3 mm 1 mps 723 mmHg 90%
09:00 +27°C° 2 mm 2 mps 723 mmHg 88%
10:00 +27°C° 2 mm 2 mps 723 mmHg 86%
11:00 +28°C° 2 mm 3 mps 723 mmHg 84%
12:00 +28°C° 1.4 mm 3 mps 722 mmHg 86%
13:00 +27°C° 1.4 mm 2 mps 721 mmHg 88%
14:00 +27°C° 1.4 mm 2 mps 720 mmHg 90%
15:00 +27°C° 0.9 mm 1 mps 720 mmHg 90%
16:00 +27°C° 0.9 mm 1 mps 720 mmHg 89%
17:00 +27°C° 0.9 mm 1 mps 719 mmHg 89%
18:00 +26°C° 0.4 mm 1 mps 720 mmHg 91%
19:00 +26°C° 0.4 mm 1 mps 720 mmHg 92%
20:00 +25°C° 0.4 mm 1 mps 721 mmHg 93%
21:00 +25°C° 0 mm 1 mps 721 mmHg 93%
22:00 +25°C° 0 mm 1 mps 721 mmHg 94%
23:00 +24°C° 0 mm 1 mps 721 mmHg 94%

9 August, Sunday

Time Temperature Precipitation Wind Pressure Humidity
00:00 +24°C° 0 mm 1 mps 721 mmHg 94%
01:00 +24°C° 0 mm 1 mps 720 mmHg 95%
02:00 +24°C° 0 mm 2 mps 720 mmHg 95%
03:00 +24°C° 0 mm 2 mps 720 mmHg 96%
04:00 +24°C° 0 mm 1 mps 720 mmHg 96%
05:00 +23°C° 0 mm 1 mps 720 mmHg 97%
06:00 +24°C° 0.1 mm 2 mps 721 mmHg 94%
07:00 +25°C° 0.1 mm 2 mps 721 mmHg 91%
08:00 +26°C° 0.1 mm 3 mps 722 mmHg 89%
09:00 +26°C° 0.6 mm 3 mps 722 mmHg 87%
10:00 +27°C° 0.6 mm 4 mps 722 mmHg 84%
11:00 +27°C° 0.6 mm 4 mps 722 mmHg 82%
12:00 +28°C° 0.7 mm 4 mps 721 mmHg 81%
13:00 +28°C° 0.7 mm 4 mps 721 mmHg 80%
14:00 +29°C° 0.7 mm 4 mps 720 mmHg 79%
15:00 +28°C° 0.8 mm 3 mps 720 mmHg 82%
16:00 +28°C° 0.8 mm 3 mps 720 mmHg 85%
17:00 +27°C° 0.8 mm 2 mps 720 mmHg 88%
18:00 +26°C° 0.1 mm 2 mps 720 mmHg 90%
19:00 +25°C° 0.1 mm 2 mps 721 mmHg 91%
20:00 +24°C° 0.1 mm 2 mps 721 mmHg 92%
21:00 +24°C° 0.7 mm 2 mps 722 mmHg 94%
22:00 +24°C° 0.7 mm 2 mps 722 mmHg 95%
23:00 +24°C° 0.7 mm 2 mps 722 mmHg 96%

10 August, Monday

Time Temperature Precipitation Wind Pressure Humidity
00:00 +24°C° 1.4 mm 2 mps 722 mmHg 96%
01:00 +24°C° 1.4 mm 2 mps 722 mmHg 97%
02:00 +23°C° 1.4 mm 2 mps 721 mmHg 97%
03:00 +23°C° 1 mm 2 mps 721 mmHg 97%
04:00 +23°C° 1 mm 2 mps 721 mmHg 97%
05:00 +23°C° 1 mm 2 mps 721 mmHg 97%
06:00 +23°C° 0.1 mm 2 mps 722 mmHg 97%
07:00 +24°C° 0.1 mm 2 mps 722 mmHg 96%
08:00 +24°C° 0.1 mm 1 mps 723 mmHg 95%
09:00 +24°C° 0 mm 2 mps 723 mmHg 95%
10:00 +25°C° 0 mm 2 mps 723 mmHg 94%
11:00 +25°C° 0 mm 2 mps 722 mmHg 93%
12:00 +26°C° 0 mm 2 mps 722 mmHg 89%
13:00 +27°C° 0 mm 2 mps 722 mmHg 84%
14:00 +28°C° 0 mm 2 mps 721 mmHg 79%
15:00 +28°C° 1 mm 2 mps 721 mmHg 83%
16:00 +28°C° 1 mm 2 mps 721 mmHg 86%
17:00 +27°C° 1 mm 2 mps 721 mmHg 89%
18:00 +26°C° 0.4 mm 1 mps 721 mmHg 91%
19:00 +26°C° 0.4 mm 1 mps 722 mmHg 93%
20:00 +25°C° 0.4 mm 1 mps 722 mmHg 95%
21:00 +24°C° 0 mm 1 mps 722 mmHg 95%
22:00 +24°C° 0 mm 1 mps 723 mmHg 96%
23:00 +24°C° 0 mm 1 mps 723 mmHg 96%

11 August, Tuesday

Time Temperature Precipitation Wind Pressure Humidity
00:00 +24°C° 0 mm 1 mps 722 mmHg 97%
01:00 +24°C° 0 mm 1 mps 722 mmHg 97%
02:00 +23°C° 0 mm 1 mps 722 mmHg 98%
03:00 +23°C° 0 mm 1 mps 722 mmHg 98%
04:00 +23°C° 0 mm 1 mps 722 mmHg 98%
05:00 +23°C° 0 mm 1 mps 723 mmHg 98%
06:00 +24°C° 0.1 mm 1 mps 723 mmHg 98%
07:00 +24°C° 0.1 mm 1 mps 724 mmHg 97%
08:00 +24°C° 0.1 mm 1 mps 724 mmHg 97%
09:00 +25°C° 0.1 mm 1 mps 724 mmHg 93%
10:00 +26°C° 0.1 mm 2 mps 724 mmHg 88%
11:00 +28°C° 0.1 mm 2 mps 724 mmHg 84%
12:00 +27°C° 1.1 mm 2 mps 723 mmHg 85%
13:00 +27°C° 1.1 mm 1 mps 723 mmHg 87%
14:00 +27°C° 1.1 mm 1 mps 722 mmHg 88%
15:00 +28°C° 0.3 mm 1 mps 722 mmHg 87%
16:00 +28°C° 0.3 mm 1 mps 721 mmHg 86%
17:00 +28°C° 0.3 mm 1 mps 721 mmHg 85%
18:00 +25°C° 0 mm 0 mps 721 mmHg 87%
19:00 +24°C° 0 mm 0 mps 722 mmHg 90%
20:00 +23°C° 0 mm 0 mps 722 mmHg 92%
21:00 +23°C° 0.1 mm 0 mps 722 mmHg 93%
22:00 +23°C° 0.1 mm 0 mps 722 mmHg 94%
23:00 +24°C° 0.1 mm 1 mps 722 mmHg 95%
Show more